Dauntless Aviation
Airports North America United States Ohio
I19

GREENE COUNTY-LEWIS A JACKSON RGNL AIRPORT

DAYTON, OH, USA

Airport Info
Suggest Updated Information for this Airport

Location

Latitude / Longitude: 39°41'26"N / 83°59'34"W
  39°41.4433'N / 83°59.5667'W
  39.6907 / -83.9928
Elevation: 948.5 ft. (surveyed)
Variation: 05W (1995)
From city: 10 miles E of DAYTON, OH

Operations

Facility use: Open to the public
Sectional chart: CINCINNATI
Control tower: no
Boundary ARTCC: INDIANAPOLIS
Responsible ARTCC: INDIANAPOLIS
FSS: DAYTON [1-800-WX-BRIEF]
NOTAMs facility: DAY (NOTAM-D service available)
Segmented circle: no
Lights: SEE RMK
Beacon: CLEAR-GREEN (LIGHTED LAND AIRPORT)
Landing fee: no

Communications

UNICOM: 122.700
CTAF: 122.700

Nearby radio navigation aids

VOR radial/distance VOR name Freq Var
SGH 218oT/11.1 SPRINGFIELD VOR/DME 113.20 04W
MXQ 331oT/18.0 MIDWEST VOR/DME 112.90 04W
DQN 136oT/27.0 DAYTON VOR/DME 114.50 01W
ROD 176oT/35.9 ROSEWOOD VORTAC 117.50 05W
RID 95oT/39.3 RICHMOND VORTAC 110.60 03W
 
NDB name Hdg/Dist Freq Var ID
XENIA 243oT/3.3 395 03W XEN
CLARK COUNTY 222oT/14.8 341 04W CCJ
AIRBO 315oT/16.8 407 04W IL
CUBLA 345oT/21.0 299 04W HW
HOOK FIELD 61oT/24.0 239 04W HKF
COURT HOUSE 281oT/28.3 414 05W CSS
LONDON 239oT/28.3 263 06W UYF
CINCINNATI-BLUE ASH 35oT/32.3 388 04W ISZ
MADEIRA 31oT/32.7 379 04W MDE
HAMILTON 54oT/32.9 260 04W HAO
CINCINNATI 27oT/35.8 335 04W LUK
HILLSBORO 326oT/36.9 278 05W HOC
BOUTN 258oT/37.2 230 05W BU
OXFORD 73oT/38.1 282 04W OXD
SPORTYS 16oT/38.3 245 04W PWF
VERSAILLES 142oT/39.4 356 04W VES

Services

Fuel available: 100LLA+
Airframe service: MAJOR
Powerplant service: MAJOR
Bulk oxygen: HIGH

Runway Information

Runway 07/25

Dimensions: 5004 x 75 ft.
Surface: ASPHALT OR BITUMINOUS CONCRETE,EXCELLENT CONDITION,NO SPECIAL SURFACE TREATMENT
Edge lights: LOW
 
Runway 07
Runway 25
Latitude: 39-41-15.3805N 39-41-37.7687N
Longitude: 084-00-02.5685W 083-59-05.5004W
Elevation: 909.5 ft. 948.5 ft.
Traffic pattern: left left
Runway true heading: 063 243
Markings: nonprecision instrument, in good condition nonprecision instrument, in good condition
Visual slope indicator: 2-LGT PAPI ON LEFT SIDE OF RUNWAY (3.50 degrees glide path) 2-LGT PAPI ON LEFT SIDE OF RUNWAY (3.50 degrees glide path)
Runway end identifier lights: yes yes
Centerline lights: no no
Touchdown lights: no no
 

Operational Statistics

Annual operations: 42900
Local: 39000
Itinerant: 3900

Additional Remarks

  • BIRDS, COYOTES, & DEER ON & INVOF ARPT.
  • FOR CD CTC COLUMBUS APCH AT 614-338-8537.
  • EXTSV FLT TRG ACT.

Instrument Procedures

Effective Sep 09, 2021 to Oct 06, 2021

IAPs (Instrument Approach Procedures)

   RNAV (GPS) RWY 07 (PDF)
   RNAV (GPS) RWY 25 (PDF)
   TAKEOFF MINIMUMS (PDF)
 
    Legends & General Information
    Airport Diagram Legend
Topographic chart at:
Satellite photo at:
Airport distance calculator
From:
Weather Reports

METAR

KI19
0.7nm N
KI19 191955Z AUTO 13005KT 10SM SCT060 30/17 A3011 RMK AO2 T02960168
KFFO
7.8nm NW
KFFO 191956Z AUTO 12006KT 10SM CLR 31/14 A3009 RMK AO2 SLP186 T03070139
KSGH
11.3nm N
KSGH 191956Z AUTO 13006KT 10SM SCT065 31/17 A3010 RMK AO2 SLP188 T03110167 $
KMGY
12.4nm SW
KMGY 191953Z AUTO 16005KT 10SM CLR 30/17 A3009 RMK AO2 SLP180 T03000167
KDAY
16.3nm NW
KDAY 191956Z 16007KT 10SM SCT055 BKN250 31/15 A3011 RMK AO2 SLP187 T03060150
KILN
17.8nm SE
KILN 191954Z AUTO 14007KT 10SM CLR 29/17 A3010 RMK AO2 SLP181 T02890167

TAF

KFFO
7.8nm NW
TAF KFFO 191901Z 1919/2101 12006KT 9999 SCT050 BKN250 QNH3006INS BECMG 2000/2001 11006KT 9999 BKN250 QNH3007INS BECMG 2007/2008 14009KT 9999 VCSH SCT035 BKN100 BKN220 QNH3005INS BECMG 2017/2018 18012KT 9000 -SHRA VCTS SCT025CB BKN040 BKN180 QNH3006INS BECMG 2100/2101 16012KT 9999 VCSH BKN040 BKN180 QNH3004INS TX32/1920Z TN20/2011Z
KDAY
16.3nm NW
KDAY 191729Z 1918/2018 15008KT P6SM SCT050 BKN250 FM200000 13005KT P6SM BKN250 FM200900 14005KT P6SM VCSH OVC100 FM201400 16008KT P6SM VCSH OVC070
KILN
17.8nm SE
KILN 191729Z 1918/2018 14007KT P6SM SCT050 BKN250 FM200000 13005KT P6SM BKN250 FM200800 15005KT P6SM BKN100 FM201500 17008KT P6SM BKN080
Safelog

 

Dauntless Aviation

© 2007-2021 Dauntless Aviation, all rights reserved
Information provided via PilotNav comes from a variety of official and unofficial data sources. As errors are possible, do not use PilotNav for primary flight planning purposes. Verify any information that you receive via PilotNav with current and canonical charts and other official documents. The material in this database is subject to database copyrights held by Dauntless Aviation and may not be copied without the express permission of Dauntless Aviation - licenses for use of part of all of this data are available for purchase; enquire via the Dauntless Aviation helpdesk. A number of mechanisms and markers exist in the database to protect against and identify infringement / copyright. Automated queries against this website are strictly prohibited, and all activity is logged and analyzed.